Location: Gleizolles
(44.4833°N, 6.7667°E)
Time: 19:27:07
(UTC+00:00)

Transit 4A - Visible Passes

Search period start: 30 April 2025 00:00
Search period end: 10 May 2025 00:00
Orbit: 864 x 978 km, 66.8° (Epoch: 28 April)

Date Brightness Start Highest point End Pass type
(mag) Time Alt. Az. Time Alt. Az. Time Alt. Az.
30 Apr 9.4 00:03:14 24° W 00:05:42 32° NW 00:11:17 10° NNE visible
30 Apr 10.5 01:52:25 10° NW 01:54:12 11° NNW 01:55:59 10° N visible
30 Apr 9.8 20:44:14 13° E 20:44:14 13° E 20:45:42 10° ENE visible
30 Apr 7.8 22:27:40 83° SE 22:27:46 84° ESE 22:34:08 10° NNE visible
01 May 9.8 00:11:04 15° W 00:14:51 25° NW 00:19:55 10° NNE visible
01 May 9.3 20:51:58 21° E 20:51:58 21° E 20:55:35 10° ENE visible
01 May 8.1 22:35:22 57° WSW 22:36:37 72° NW 22:42:58 10° NNE visible
02 May 10.1 00:19:38 10° W 00:24:05 19° NW 00:28:31 10° N visible
02 May 8.7 20:59:30 32° ESE 20:59:30 32° ESE 21:04:58 10° NE visible
02 May 8.6 22:42:53 33° WSW 22:45:33 52° NW 22:51:44 10° NNE visible
03 May 10.4 00:29:45 10° WNW 00:33:25 16° NNW 00:37:03 10° N visible
03 May 8.2 21:06:46 40° SE 21:08:07 46° ESE 21:14:08 10° NE visible
03 May 9.1 22:50:08 17° WSW 22:54:34 39° NW 23:00:27 10° NNE visible
04 May 10.6 00:40:08 10° NW 00:42:49 13° NNW 00:45:28 10° N visible
04 May 9.7 19:30:37 10° ESE 19:31:41 10° E 19:32:45 10° E visible
04 May 7.9 21:13:36 30° S 21:16:51 66° ESE 21:23:08 10° NE visible
04 May 9.6 22:58:10 10° WSW 23:03:40 30° NW 23:09:08 10° NNE visible
05 May 10.8 00:50:58 10° NNW 00:52:16 11° NNW 00:53:34 10° N visible
05 May 9.4 19:36:21 10° SE 19:40:09 17° ESE 19:43:56 10° ENE visible
05 May 7.9 21:19:34 12° SSW 21:25:40 90° WNW 21:32:01 10° NNE visible
05 May 10.1 23:07:54 10° W 23:12:51 23° NW 23:17:45 10° NNE visible
06 May 11.0 02:50:32 10° N 02:51:29 10° NNE 02:52:25 10° NNE visible
06 May 9.0 19:43:43 10° SSE 19:48:41 25° ESE 19:53:39 10° NE visible
06 May 8.3 21:28:11 10° SW 21:34:32 66° NW 21:40:50 10° NNE visible
06 May 10.4 23:17:51 10° WNW 23:22:07 18° NNW 23:26:20 10° N visible
07 May 10.8 02:58:30 10° N 03:00:56 12° NNE 03:03:21 10° NE visible
07 May 8.5 19:51:37 10° S 19:57:18 35° ESE 20:02:57 10° NE visible
07 May 8.9 21:37:21 10° SW 21:43:30 48° NW 21:49:36 10° NNE visible
07 May 10.6 23:28:03 10° WNW 23:31:27 15° NNW 23:34:50 10° N visible
08 May 10.7 03:06:54 10° N 03:10:20 15° NNE 03:13:43 10° ENE visible
08 May 8.1 19:59:51 10° S 20:05:59 50° ESE 20:12:04 10° NE visible
08 May 9.4 21:46:43 10° WSW 21:52:32 36° NW 21:58:18 10° NNE visible
08 May 10.8 23:38:31 10° NW 23:40:52 12° NNW 23:43:11 10° N visible
09 May 10.6 03:15:26 10° N 03:19:40 19° NNE 03:23:47 10° ENE visible
09 May 7.9 20:08:23 10° SSW 20:14:44 72° ESE 20:21:02 10° NE visible
09 May 9.9 21:56:17 10° W 22:01:38 28° NW 22:06:57 10° NNE visible
09 May 11.1 23:49:46 10° NNW 23:50:20 10° NNW 23:50:54 10° N visible
